• In Uzbekistan
  • List of Countries
  • For 7 days
  • Water Temperature
  • Satellite Maps
  • Weather Map
  • Weather Widgets
  • user-avatar
    Login

    Hourly Weather Debrecen

    Today, 12 December, Tuesday

    Time Temperature Precipitation Wind Pressure Humidity
    00:00 +6°C° 0 mm 9 mps 745 mmHg 68%
    01:00 +6°C° 0 mm 8 mps 744 mmHg 70%
    02:00 +6°C° 0 mm 8 mps 744 mmHg 71%
    03:00 +6°C° 0 mm 8 mps 744 mmHg 71%
    04:00 +6°C° 0 mm 7 mps 745 mmHg 71%
    05:00 +6°C° 0 mm 7 mps 745 mmHg 72%
    06:00 +6°C° 0 mm 7 mps 745 mmHg 73%
    07:00 +7°C° 0 mm 5 mps 745 mmHg 78%
    08:00 +8°C° 0 mm 6 mps 745 mmHg 75%
    09:00 +9°C° 0 mm 7 mps 746 mmHg 71%
    10:00 +10°C° 0 mm 7 mps 746 mmHg 68%
    11:00 +11°C° 0 mm 7 mps 747 mmHg 66%
    12:00 +12°C° 0 mm 7 mps 747 mmHg 64%
    13:00 +14°C° 0 mm 7 mps 747 mmHg 63%
    14:00 +12°C° 0 mm 7 mps 748 mmHg 66%
    15:00 +12°C° 0 mm 7 mps 748 mmHg 68%
    16:00 +11°C° 0 mm 6 mps 748 mmHg 71%
    17:00 +11°C° 0.1 mm 6 mps 748 mmHg 73%
    18:00 +10°C° 0.1 mm 6 mps 749 mmHg 75%
    19:00 +10°C° 0.1 mm 5 mps 749 mmHg 77%
    20:00 +9°C° 0.1 mm 5 mps 749 mmHg 80%
    21:00 +10°C° 0.1 mm 4 mps 750 mmHg 82%
    22:00 +8°C° 0.1 mm 4 mps 750 mmHg 84%
    23:00 +8°C° 0.2 mm 4 mps 750 mmHg 86%

    Tomorrow, 13 December, Wednesday

    Time Temperature Precipitation Wind Pressure Humidity
    00:00 +9°C° 0.2 mm 3 mps 750 mmHg 87%
    01:00 +9°C° 0.2 mm 3 mps 750 mmHg 88%
    02:00 +8°C° 0.5 mm 3 mps 750 mmHg 89%
    03:00 +8°C° 0.5 mm 3 mps 750 mmHg 89%
    04:00 +7°C° 0.5 mm 3 mps 750 mmHg 90%
    05:00 +7°C° 1.1 mm 3 mps 750 mmHg 89%
    06:00 +5°C° 1.1 mm 4 mps 750 mmHg 88%
    07:00 +5°C° 1.1 mm 4 mps 751 mmHg 87%
    08:00 +5°C° 0.6 mm 4 mps 751 mmHg 86%
    09:00 +4°C° 0.6 mm 4 mps 751 mmHg 84%
    10:00 +4°C° 0.6 mm 4 mps 751 mmHg 83%
    11:00 +4°C° 0.5 mm 4 mps 751 mmHg 82%
    12:00 +4°C° 0.5 mm 4 mps 751 mmHg 81%
    13:00 +4°C° 0.5 mm 4 mps 751 mmHg 79%
    14:00 +4°C° 0.2 mm 3 mps 751 mmHg 79%
    15:00 +4°C° 0.2 mm 3 mps 751 mmHg 79%
    16:00 +4°C° 0.2 mm 2 mps 750 mmHg 80%
    17:00 +4°C° 0.1 mm 2 mps 750 mmHg 81%
    18:00 +4°C° 0.1 mm 2 mps 750 mmHg 82%
    19:00 +3°C° 0.1 mm 2 mps 751 mmHg 83%
    20:00 +3°C° 0 mm 2 mps 750 mmHg 84%
    21:00 +3°C° 0 mm 2 mps 750 mmHg 85%
    22:00 +3°C° 0 mm 2 mps 750 mmHg 86%
    23:00 +2°C° 0 mm 2 mps 750 mmHg 87%

    Day after tomorrow, 14 December, Thursday

    Time Temperature Precipitation Wind Pressure Humidity
    00:00 +2°C° 0 mm 2 mps 750 mmHg 89%
    01:00 +2°C° 0 mm 2 mps 750 mmHg 90%
    02:00 0°C° 0 mm 3 mps 749 mmHg 90%
    03:00 0°C° 0 mm 3 mps 749 mmHg 90%
    04:00 0°C° 0 mm 3 mps 748 mmHg 90%
    05:00 -1°C° 0 mm 4 mps 748 mmHg 90%
    06:00 -1°C° 0 mm 4 mps 748 mmHg 90%
    07:00 -1°C° 0 mm 4 mps 748 mmHg 90%
    08:00 0°C° 0 mm 5 mps 748 mmHg 86%
    09:00 +1°C° 0 mm 6 mps 748 mmHg 82%
    10:00 +2°C° 0 mm 7 mps 748 mmHg 78%
    11:00 +3°C° 0.1 mm 6 mps 747 mmHg 77%
    12:00 +3°C° 0.1 mm 6 mps 747 mmHg 75%
    13:00 +5°C° 0.1 mm 5 mps 747 mmHg 74%
    14:00 +5°C° 0.3 mm 5 mps 747 mmHg 76%
    15:00 +4°C° 0.3 mm 4 mps 747 mmHg 78%
    16:00 +4°C° 0.3 mm 4 mps 747 mmHg 80%
    17:00 +4°C° 0.3 mm 4 mps 747 mmHg 82%
    18:00 +4°C° 0.3 mm 4 mps 746 mmHg 83%
    19:00 +4°C° 0.3 mm 4 mps 746 mmHg 85%
    20:00 +4°C° 0.6 mm 4 mps 746 mmHg 87%
    21:00 +4°C° 0.6 mm 4 mps 746 mmHg 90%
    22:00 +4°C° 0.6 mm 4 mps 746 mmHg 92%
    23:00 +4°C° 0.8 mm 4 mps 745 mmHg 92%

    15 December, Friday

    Time Temperature Precipitation Wind Pressure Humidity
    00:00 +5°C° 0.8 mm 5 mps 744 mmHg 92%
    01:00 +5°C° 0.8 mm 5 mps 744 mmHg 91%
    02:00 +4°C° 0.7 mm 6 mps 743 mmHg 90%
    03:00 +5°C° 0.7 mm 6 mps 742 mmHg 88%
    04:00 +5°C° 0.7 mm 7 mps 741 mmHg 86%
    05:00 +6°C° 1.1 mm 7 mps 741 mmHg 84%
    06:00 +6°C° 1.1 mm 8 mps 741 mmHg 82%
    07:00 +7°C° 1.1 mm 9 mps 741 mmHg 79%
    08:00 +6°C° 1 mm 8 mps 741 mmHg 81%
    09:00 +6°C° 1 mm 8 mps 741 mmHg 83%
    10:00 +6°C° 1 mm 7 mps 741 mmHg 85%
    11:00 +7°C° 0.3 mm 6 mps 741 mmHg 82%
    12:00 +6°C° 0.3 mm 5 mps 741 mmHg 79%
    13:00 +6°C° 0.3 mm 5 mps 742 mmHg 76%
    14:00 +5°C° 0.5 mm 4 mps 742 mmHg 77%
    15:00 +5°C° 0.5 mm 3 mps 742 mmHg 78%
    16:00 +5°C° 0.5 mm 2 mps 741 mmHg 79%
    17:00 +5°C° 2.3 mm 2 mps 741 mmHg 81%
    18:00 +4°C° 2.3 mm 2 mps 741 mmHg 83%
    19:00 +3°C° 2.3 mm 3 mps 741 mmHg 86%
    20:00 +3°C° 2.5 mm 3 mps 741 mmHg 86%
    21:00 +3°C° 2.5 mm 3 mps 741 mmHg 87%
    22:00 +3°C° 2.5 mm 3 mps 741 mmHg 87%
    23:00 +4°C° 1 mm 2 mps 741 mmHg 87%

    16 December, Saturday

    Time Temperature Precipitation Wind Pressure Humidity
    00:00 +4°C° 1 mm 2 mps 741 mmHg 87%
    01:00 +4°C° 1 mm 2 mps 741 mmHg 87%
    02:00 +4°C° 0.2 mm 2 mps 741 mmHg 87%
    03:00 +3°C° 0.2 mm 2 mps 741 mmHg 87%
    04:00 +3°C° 0.2 mm 2 mps 741 mmHg 87%
    05:00 +3°C° 0.2 mm 2 mps 742 mmHg 87%
    06:00 +3°C° 0.2 mm 2 mps 742 mmHg 87%
    07:00 +3°C° 0.2 mm 2 mps 743 mmHg 87%
    08:00 +3°C° 0.1 mm 2 mps 743 mmHg 85%
    09:00 +4°C° 0.1 mm 2 mps 744 mmHg 83%
    10:00 +4°C° 0.1 mm 2 mps 744 mmHg 81%
    11:00 +4°C° 0 mm 2 mps 745 mmHg 78%
    12:00 +5°C° 0 mm 2 mps 745 mmHg 74%
    13:00 +5°C° 0 mm 2 mps 745 mmHg 71%
    14:00 +5°C° 0 mm 2 mps 746 mmHg 74%
    15:00 +4°C° 0 mm 2 mps 746 mmHg 77%
    16:00 +4°C° 0 mm 2 mps 746 mmHg 80%
    17:00 +3°C° 0 mm 2 mps 747 mmHg 82%
    18:00 +3°C° 0 mm 2 mps 747 mmHg 84%
    19:00 +2°C° 0 mm 2 mps 748 mmHg 86%
    20:00 +3°C° 0 mm 1 mps 748 mmHg 86%
    21:00 +3°C° 0 mm 1 mps 748 mmHg 86%
    22:00 +3°C° 0 mm 1 mps 748 mmHg 86%
    23:00 +3°C° 0 mm 1 mps 748 mmHg 86%

    17 December, Sunday

    Time Temperature Precipitation Wind Pressure Humidity
    00:00 +3°C° 0 mm 1 mps 748 mmHg 86%
    01:00 +2°C° 0 mm 1 mps 748 mmHg 86%
    02:00 +2°C° 0 mm 1 mps 748 mmHg 87%
    03:00 +2°C° 0 mm 1 mps 748 mmHg 87%
    04:00 +2°C° 0 mm 1 mps 748 mmHg 88%
    05:00 +1°C° 0 mm 2 mps 749 mmHg 88%
    06:00 +1°C° 0 mm 2 mps 749 mmHg 89%
    07:00 -1°C° 0 mm 2 mps 749 mmHg 89%
    08:00 0°C° 0 mm 3 mps 749 mmHg 84%
    09:00 +1°C° 0 mm 3 mps 750 mmHg 80%
    10:00 +1°C° 0 mm 3 mps 750 mmHg 75%
    11:00 +1°C° 0 mm 4 mps 750 mmHg 72%
    12:00 +3°C° 0 mm 4 mps 750 mmHg 68%
    13:00 +2°C° 0 mm 5 mps 750 mmHg 65%
    14:00 +3°C° 0 mm 4 mps 750 mmHg 68%
    15:00 +1°C° 0 mm 4 mps 751 mmHg 72%
    16:00 +1°C° 0 mm 3 mps 751 mmHg 75%
    17:00 +1°C° 0 mm 3 mps 752 mmHg 75%
    18:00 0°C° 0 mm 3 mps 753 mmHg 75%
    19:00 0°C° 0 mm 3 mps 753 mmHg 75%
    20:00 0°C° 0 mm 3 mps 754 mmHg 75%
    21:00 0°C° 0 mm 3 mps 754 mmHg 76%
    22:00 -1°C° 0 mm 3 mps 755 mmHg 76%
    23:00 -1°C° 0 mm 2 mps 755 mmHg 77%
    Show more